DW4465 Weather Reports


Display with metric or nautical units.
time (UTC)temp
F
wind
direction
speed
MPH
gust
MPH
rain 1hr
in
rain 24hr
in
rain mn
in
humidity
%
barometer
mb
20260505101552 57 0 0.0 3.0 0.02 0.07 0.04 87 1013.7
20260505100053 57 0 0.0 1.0 0.01 0.06 0.03 87 1013.7
20260505094539 57 0 0.0 2.0 0.01 0.06 0.03 87 1013.8
20260505093041 57 184 0.0 3.0 0.01 0.06 0.03 86 1014.0
20260505091544 57 0 0.0 3.0 0.01 0.05 0.02 86 1014.3
20260505090056 57 185 0.0 2.0 0.01 0.05 0.02 86 1014.2
20260505084547 57 126 0.0 2.0 0.02 0.05 0.02 86 1014.5
20260505083040 57 141 0.0 2.0 0.02 0.05 0.02 85 1014.5
20260505081544 57 0 0.0 2.0 0.01 0.04 0.01 85 1014.7
20260505080039 57 0 0.0 0.0 0.01 0.04 0.01 85 1014.8
20260505074543 57 0 0.0 0.0 0.01 0.03 0.00 84 1015.0
20260505073044 57 0 0.0 0.0 0.02 0.03 0.00 84 1015.1
20260505071542 57 0 0.0 0.0 0.02 0.03 0.00 84 1015.1
20260505070044 57 0 0.0 2.0 0.03 0.03 0.00 83 1015.1
20260505064537 57 0 0.0 1.0 0.02 0.02 0.02 83 1015.1
20260505063046 58 0 0.0 3.0 0.01 0.01 0.01 82 1015.1
20260505061546 59 148 2.0 5.0 0.01 0.01 0.01 81 1015.1
20260505060042 60 0 1.0 4.0 0.00 0.00 0.00 79 1015.1
20260505054544 60 196 1.0 4.0 0.00 0.00 0.00 79 1015.1
20260505053045 60 168 0.0 3.0 0.00 0.00 0.00 79 1015.2
20260505051537 60 188 0.0 3.0 0.00 0.00 0.00 79 1015.3
20260505041544 59 0 0.0 2.0 0.00 0.00 0.00 78 1015.6
20260505040049 59 186 0.0 4.0 0.00 0.00 0.00 78 1015.4
20260505034544 60 202 1.0 4.0 0.00 0.00 0.00 77 1015.4
20260505033104 60 0 1.0 7.0 0.00 0.00 0.00 76 1015.2
20260505031541 60 0 1.0 5.0 0.00 0.00 0.00 76 1015.1
20260505030038 60 243 2.0 8.0 0.00 0.00 0.00 74 1015.1
20260505024544 61 198 3.0 9.0 0.00 0.00 0.00 73 1015.0
20260505023056 61 240 2.0 7.0 0.00 0.00 0.00 71 1015.2
20260505021542 62 229 2.0 8.0 0.00 0.00 0.00 70 1015.0
20260505020048 63 200 2.0 11.0 0.00 0.00 0.00 69 1014.9
20260505014540 64 219 3.0 10.0 0.00 0.00 0.00 67 1014.9
20260505013037 65 223 2.0 9.0 0.00 0.00 0.00 62 1014.9
20260505011537 66 228 1.0 4.0 0.00 0.00 0.00 63 1014.8
20260505010045 66 306 2.0 7.0 0.00 0.00 0.00 63 1014.9
20260505004547 67 294 1.0 4.0 0.00 0.00 0.00 62 1014.8
20260505003045 66 261 1.0 9.0 0.00 0.00 0.00 62 1014.9
20260505001537 66 311 2.0 8.0 0.00 0.00 0.00 61 1015.1
20260505000037 67 313 2.0 8.0 0.00 0.00 0.00 60 1014.9
20260504234609 68 246 2.0 8.0 0.00 0.00 0.00 59 1014.9
20260504233043 68 13 3.0 7.0 0.00 0.00 0.00 59 1014.7
20260504231550 69 345 3.0 9.0 0.00 0.00 0.00 58 1014.7
20260504230040 69 271 3.0 9.0 0.00 0.00 0.00 57 1014.6
20260504224537 69 252 3.0 9.0 0.00 0.00 0.00 56 1014.9
20260504223044 70 0 2.0 10.0 0.00 0.00 0.00 55 1015.0
20260504221547 69 216 3.0 12.0 0.00 0.00 0.00 56 1015.1
20260504220042 70 252 4.0 11.0 0.00 0.00 0.00 56 1015.2
20260504214541 69 191 3.0 12.0 0.00 0.00 0.00 60 1015.3
20260504213037 69 212 5.0 15.0 0.00 0.00 0.00 58 1015.6
20260504211546 70 275 3.0 10.0 0.00 0.00 0.00 56 1015.5
20260504210053 66 159 7.0 15.0 0.00 0.00 0.00 64 1015.5
20260504204618 67 264 4.0 11.0 0.00 0.00 0.00 64 1015.5
20260504203040 68 192 4.0 12.0 0.00 0.00 0.00 63 1015.6
20260504201538 66 192 5.0 12.0 0.00 0.00 0.00 65 1015.6
20260504200053 68 200 3.0 9.0 0.00 0.00 0.00 60 1015.6
20260504194550 69 145 3.0 12.0 0.00 0.00 0.00 59 1015.9
20260504193045 71 268 2.0 7.0 0.00 0.00 0.00 47 1016.1
20260504191538 71 309 1.0 9.0 0.00 0.00 0.00 48 1016.1
20260504190042 71 350 2.0 9.0 0.00 0.00 0.00 48 1015.9
20260504184546 70 211 2.0 7.0 0.00 0.00 0.00 51 1016.2
20260504183037 68 222 2.0 10.0 0.00 0.00 0.00 52 1016.1
20260504181542 67 335 1.0 9.0 0.00 0.00 0.00 59 1016.1
20260504180042 66 221 1.0 9.0 0.00 0.00 0.00 56 1016.2
20260504174539 68 244 1.0 5.0 0.00 0.00 0.00 54 1016.0
20260504173048 67 222 2.0 7.0 0.00 0.00 0.00 56 1016.0
20260504171544 66 287 2.0 6.0 0.00 0.00 0.00 58 1015.9